Theta_e
358 357 357 357 358 358 359 359 358 359 357 357 356 355 355 355 355 356 355 355 354 353 352 352 352 351 349 349 349 349 349 349 348 348 348 349 348 347 348 347 348 349 351 352 352 351 351 352 353 353 353 353 352 351 351 352 351 350 350 348 346 347 347 345 346 348 347 346 348 350 351 352 351 353 354 355 355 356 357 358 358 358 357 357 356
360 359 359 359 359 359 358 359 359 359 359 358 357 356 355 356 355 355 354 354 354 353 352 351 351 351 350 349 349 348 349 348 348 347 347 349 348 347 348 348 348 350 351 352 352 351 351 351 351 351 352 353 352 352 352 351 351 351 351 348 347 348 349 348 347 348 348 347 348 351 353 353 352 353 353 354 355 354 354 356 357 358 357 357 357
360 361 361 360 360 359 358 358 359 359 359 359 359 357 356 356 354 354 354 353 353 352 352 351 350 351 350 349 349 348 349 348 348 348 348 348 349 349 349 349 349 350 351 352 352 351 350 350 349 349 351 352 352 351 352 352 350 350 351 349 350 349 349 349 349 348 348 349 350 351 352 352 353 353 354 354 354 353 353 354 356 357 357 357 356
360 361 361 361 360 360 359 358 359 359 359 359 359 358 357 355 354 354 353 352 352 352 351 351 351 350 350 349 349 349 348 348 348 348 348 347 348 349 349 350 350 350 351 350 350 349 350 349 349 350 351 352 352 351 351 352 350 350 351 351 351 350 349 349 349 348 346 347 348 348 349 349 350 352 353 353 353 353 354 354 356 357 357 357 357
361 361 361 361 361 361 360 358 358 358 357 358 358 357 356 355 354 353 353 352 352 352 352 352 350 350 350 349 349 348 348 348 348 348 349 349 349 349 349 349 350 351 351 350 349 349 350 351 351 351 352 351 351 352 352 351 351 351 352 352 351 351 349 348 348 347 346 345 345 346 347 347 348 349 350 350 351 354 355 356 357 358 357 358 357
361 361 361 361 360 360 359 358 358 358 357 357 358 357 357 355 355 354 353 352 352 352 352 352 351 350 350 350 350 350 349 349 348 349 351 352 351 351 350 349 349 350 351 351 349 350 351 352 352 351 351 351 351 351 351 352 352 353 352 352 351 350 349 348 348 347 347 346 347 347 348 348 348 349 350 350 351 352 354 354 356 357 358 358 357
360 360 361 360 360 359 358 358 358 358 358 358 357 357 356 354 355 354 352 352 352 352 352 352 352 352 351 351 351 351 351 349 349 351 352 352 352 352 351 351 350 350 351 351 351 351 351 351 351 351 351 351 350 350 350 349 349 349 349 349 349 350 349 348 348 348 347 347 348 347 347 348 350 352 351 350 350 352 353 354 354 354 355 356 356
361 361 361 359 358 358 358 358 358 357 358 357 356 357 355 355 354 353 350 349 351 352 353 353 353 353 353 353 353 352 351 350 350 351 352 352 352 352 351 351 351 351 351 352 352 351 352 351 351 351 351 350 350 349 349 348 347 347 347 347 348 349 348 348 347 348 348 347 348 348 347 348 352 353 352 351 351 351 352 353 353 353 352 352 353
362 360 360 358 357 357 357 357 357 356 355 355 355 355 355 355 355 351 348 348 349 352 353 354 354 355 354 355 354 353 352 352 351 352 352 352 352 352 352 351 352 352 352 352 352 351 351 351 351 350 350 349 349 348 347 347 347 347 347 347 348 349 349 349 348 347 347 346 346 347 346 347 350 351 350 350 350 349 350 351 351 352 351 350 350
360 359 358 358 356 356 356 355 354 353 352 353 354 354 354 355 355 352 348 346 348 351 353 354 355 356 355 355 355 354 354 354 354 353 353 353 352 353 353 353 353 353 353 352 352 351 350 351 350 350 349 348 348 349 349 349 349 348 348 349 350 349 349 349 348 346 345 345 345 346 345 345 347 349 348 349 349 349 349 349 349 350 349 349 349
357 357 357 356 356 356 355 353 352 352 351 352 352 353 353 354 354 355 352 349 350 353 355 356 356 356 356 355 355 355 355 354 354 354 353 353 353 353 353 353 354 353 354 353 352 351 351 351 351 350 349 349 349 349 350 350 352 351 349 350 351 351 351 350 349 348 346 345 344 344 344 345 347 348 347 348 348 347 348 347 347 347 347 348 348
355 355 355 355 354 354 353 351 351 351 351 350 351 351 352 353 353 354 355 355 356 357 357 356 356 356 356 355 354 355 355 355 355 354 353 353 353 353 353 353 353 353 353 353 352 351 351 351 352 352 351 350 349 349 348 349 351 350 350 351 351 352 352 350 348 348 348 346 344 344 345 346 347 348 348 347 347 347 347 346 346 346 346 347 347
354 353 353 352 352 352 351 351 351 351 351 351 352 353 352 353 354 354 356 356 356 357 356 355 356 357 355 353 352 354 354 354 354 353 353 352 352 352 352 351 352 352 352 351 351 351 352 352 352 352 351 350 349 349 349 349 350 350 351 351 350 350 350 349 347 349 349 347 345 345 347 348 348 347 348 347 346 346 346 346 346 345 345 346 346
353 352 352 351 352 352 352 352 352 352 353 353 354 355 354 354 354 355 355 356 355 355 355 355 356 356 355 353 352 352 352 352 351 351 351 352 352 352 352 351 351 350 351 351 350 351 351 352 352 351 351 350 349 349 350 350 349 350 350 350 349 349 350 348 348 348 348 347 346 347 348 349 347 347 347 346 346 346 345 345 345 344 344 345 346
352 352 352 352 353 352 352 353 353 354 355 354 354 353 354 354 355 354 355 355 355 355 354 355 356 355 354 353 353 352 352 352 352 351 351 351 351 352 351 351 351 351 351 351 351 351 351 352 352 352 351 350 350 349 350 350 349 349 349 349 349 348 346 345 346 348 346 346 347 347 346 346 346 346 346 345 345 345 345 345 346 345 345 345 345
351 352 354 354 353 353 352 353 353 354 354 354 353 353 353 354 354 355 356 356 356 355 355 355 355 354 354 353 353 353 352 352 352 351 352 352 352 352 352 351 351 350 350 351 351 351 352 352 351 351 351 350 350 350 350 350 350 349 348 348 348 347 344 340 342 345 344 344 346 346 345 346 345 345 344 342 341 341 340 342 344 344 343 343 343
352 354 356 355 353 353 353 353 354 354 354 353 353 352 352 353 354 355 356 356 355 354 355 355 355 354 354 353 353 353 352 352 352 351 352 352 351 351 352 350 350 349 349 350 351 350 351 350 350 350 351 351 351 350 350 349 348 348 347 347 347 346 343 338 337 337 337 339 342 343 343 342 342 341 340 338 338 336 336 339 341 341 342 341 342
355 356 355 354 353 353 354 355 355 355 354 354 353 352 353 355 355 355 355 356 355 354 354 354 354 353 353 352 353 353 352 352 352 351 352 352 351 351 349 348 347 348 349 350 349 349 348 348 349 349 350 349 350 350 349 348 347 346 346 345 344 342 339 334 331 330 330 332 334 336 338 338 338 339 339 339 339 339 338 339 340 340 341 342 342
356 355 354 352 353 354 355 356 356 355 356 355 354 355 356 356 356 355 355 355 355 354 354 354 354 354 353 352 352 352 352 352 351 349 349 348 347 347 345 344 344 347 349 348 347 346 346 346 347 348 347 347 347 347 346 345 345 344 343 341 339 338 334 331 329 331 333 334 335 336 338 339 339 340 340 340 341 341 341 340 340 340 341 339 338
354 354 353 354 354 356 357 356 356 356 356 356 355 356 355 355 355 355 355 354 354 354 353 353 353 353 352 352 352 351 351 350 348 345 344 343 343 343 342 342 343 346 347 346 345 345 343 343 344 344 344 344 345 344 344 343 342 340 338 337 336 334 331 330 332 334 335 337 338 338 338 338 338 338 338 338 338 338 338 337 337 337 337 334 333
353 353 354 355 355 355 355 355 355 355 355 355 355 355 355 354 355 355 354 354 353 352 352 352 351 351 351 351 350 349 349 349 346 343 341 340 340 341 341 341 343 343 343 343 344 343 342 342 341 340 341 342 342 342 341 339 337 335 334 334 333 331 329 330 333 334 335 337 337 336 336 336 336 336 335 335 334 333 334 334 334 333 331 330 330
353 354 354 353 353 353 354 354 355 355 355 355 354 354 354 354 354 353 353 353 352 352 351 351 350 349 349 349 348 347 348 348 345 342 339 337 337 338 339 339 339 338 338 338 339 338 338 338 338 339 339 339 339 338 336 335 333 330 330 330 330 329 330 331 333 334 335 336 335 334 334 334 334 334 332 331 330 331 332 331 331 330 329 329 330
353 353 353 353 354 354 355 355 355 355 354 354 353 353 354 353 352 352 352 352 352 351 350 350 349 348 347 347 347 347 347 346 343 341 338 336 336 336 336 336 336 336 336 336 337 336 336 336 336 337 338 337 336 336 334 333 331 329 328 329 329 329 330 332 333 332 333 334 333 332 332 331 330 330 329 328 329 330 330 329 328 329 328 328 328
353 353 354 354 356 355 355 355 354 353 353 352 352 352 352 352 352 351 351 351 351 350 349 349 349 347 347 347 347 347 347 345 342 340 339 337 336 337 337 336 337 336 336 336 336 335 335 335 336 337 336 336 335 334 333 332 331 329 329 329 329 330 331 332 332 332 331 332 331 330 329 329 329 329 328 328 329 329 329 328 329 329 329 328 328
356 356 355 355 355 354 353 353 352 352 352 351 351 351 351 351 349 349 349 349 348 349 348 348 349 349 348 347 347 347 347 345 342 340 339 338 339 339 338 338 337 336 336 335 334 333 333 333 333 334 334 333 332 331 330 331 332 331 331 330 330 331 332 332 332 331 330 330 330 329 329 330 330 330 330 329 329 329 329 329 329 330 330 328 328
357 356 355 354 353 353 352 351 350 351 350 350 350 349 348 348 347 347 348 348 348 348 348 348 348 348 348 349 348 347 346 344 342 340 339 340 341 341 341 340 338 335 334 333 332 331 330 329 329 330 330 330 331 330 331 332 333 333 333 332 331 331 332 332 332 332 331 330 330 330 330 330 330 331 331 331 330 330 330 329 330 330 329 328 328
355 355 354 352 351 352 352 352 352 351 350 350 350 348 347 347 347 347 347 348 347 348 347 347 346 347 349 350 349 347 347 345 343 342 342 342 341 339 340 339 336 334 333 332 330 330 329 329 330 331 332 334 334 335 336 336 336 336 336 335 334 333 332 332 333 332 331 331 330 330 330 330 331 331 331 331 331 330 330 330 330 330 329 328 327
353 353 353 351 351 353 352 352 351 350 349 349 349 348 348 348 347 345 343 344 344 343 343 343 344 346 348 348 348 348 348 347 345 342 341 339 336 334 335 334 333 333 332 331 331 331 332 334 334 334 335 335 335 335 336 336 337 338 338 338 337 337 335 334 333 333 333 332 331 330 330 330 331 331 331 331 331 331 331 331 331 330 329 328 327
351 350 350 349 349 349 349 348 347 347 347 347 346 347 347 345 343 341 339 338 339 339 339 341 343 344 345 345 346 345 344 342 341 339 337 336 335 333 334 333 333 332 331 331 331 332 333 334 334 334 334 334 333 333 333 334 334 335 336 337 338 338 337 336 335 334 333 332 332 330 330 330 330 330 330 330 330 330 331 331 331 330 329 328 327
347 345 346 345 344 345 345 344 343 343 344 345 344 344 343 341 340 340 338 336 336 336 337 337 339 339 340 341 341 339 338 338 337 337 337 336 336 336 335 334 333 332 332 332 332 332 333 334 334 334 334 334 333 333 333 333 333 333 333 334 335 335 335 335 334 333 333 332 331 331 331 330 329 329 329 330 330 329 330 331 331 330 329 328 328
345 344 345 345 344 345 344 343 343 343 344 343 343 343 341 340 339 338 338 337 337 337 337 337 336 336 336 336 337 337 336 337 336 336 336 336 336 336 334 333 333 334 334 334 333 333 333 334 334 334 334 334 334 333 333 333 333 332 333 333 333 334 334 333 332 332 332 332 331 330 330 330 329 330 329 329 329 329 329 330 331 330 329 329 328
347 347 346 346 345 345 345 346 346 345 345 344 344 343 342 339 338 337 337 337 338 339 338 338 337 337 336 336 336 336 335 335 335 335 335 335 335 334 333 333 334 335 335 335 335 334 334 334 334 334 333 333 334 333 333 333 332 332 332 332 332 333 334 333 333 333 332 332 332 331 330 330 330 330 330 330 330 330 329 330 330 330 330 329 328
347 346 346 346 346 346 345 346 346 346 346 344 344 344 344 342 340 337 336 336 337 337 338 337 337 337 336 336 336 336 335 335 335 334 334 334 334 334 334 335 335 335 334 334 334 334 334 334 334 334 333 333 332 332 332 332 332 332 333 332 331 331 332 332 331 331 331 331 332 331 331 330 330 330 330 330 330 329 330 329 330 330 330 329 329
346 346 346 346 345 344 344 344 344 344 343 343 343 343 344 345 343 340 337 337 337 337 336 337 336 336 337 336 336 336 336 336 335 334 334 334 334 334 335 335 335 334 334 334 334 334 334 334 333 333 332 331 331 331 331 331 331 331 331 331 331 331 331 331 330 330 330 330 330 330 330 330 330 329 329 329 330 330 330 330 330 330 329 329 329
346 345 344 343 342 341 342 342 343 343 342 342 342 342 343 343 343 341 340 339 338 336 336 335 335 336 336 336 336 336 336 335 335 335 335 334 334 335 334 334 333 332 332 332 333 332 331 331 330 330 329 328 327 328 329 328 327 327 327 328 329 329 329 329 329 327 327 327 327 327 328 328 328 327 327 327 328 328 329 329 329 329 329 329 329
344 344 343 342 341 340 340 341 341 341 341 341 341 342 342 342 342 342 340 338 336 334 333 332 332 333 334 335 335 335 335 334 334 333 333 332 332 333 331 329 329 329 329 329 330 329 328 327 326 326 326 325 324 324 324 323 323 322 322 323 323 323 323 323 324 324 324 324 323 324 324 324 324 324 325 325 326 326 326 327 327 328 328 328 328
341 342 342 341 340 339 339 339 340 340 340 339 339 340 340 341 341 340 337 335 333 331 330 330 332 333 334 334 334 334 333 332 331 330 330 330 329 329 327 325 325 324 324 324 324 325 324 323 322 322 322 322 321 321 320 319 319 318 318 318 317 317 316 317 317 318 319 319 319 319 319 318 319 320 321 323 324 325 325 325 325 326 326 327 328
339 340 340 339 339 338 338 338 339 339 339 339 339 339 340 340 338 335 332 330 329 328 328 329 331 332 332 333 332 332 331 330 329 328 327 326 325 325 324 323 323 322 321 320 320 320 320 319 319 319 319 318 317 317 316 316 315 315 314 313 312 312 311 312 312 313 314 314 314 314 313 314 315 317 319 321 322 322 323 323 323 324 324 325 326
338 339 339 338 338 337 336 337 337 337 337 338 338 339 338 337 334 332 330 328 327 327 327 328 328 329 329 329 329 329 328 327 326 324 322 321 321 321 321 322 321 321 320 320 319 318 316 315 314 314 314 314 313 312 312 312 311 310 309 309 308 307 306 306 306 307 308 309 310 310 311 311 313 316 318 319 320 320 321 321 322 322 322 323 323
337 337 337 337 336 336 336 336 335 335 336 336 336 336 336 335 333 330 328 327 326 326 326 326 326 327 327 326 326 326 326 324 323 321 320 320 319 319 319 319 319 318 318 318 318 316 314 313 312 311 310 309 308 308 307 307 306 305 305 304 303 302 302 302 302 303 303 304 305 307 308 310 312 314 316 317 318 319 319 320 320 321 321 322 322
336 336 335 335 335 334 334 333 333 333 332 332 333 333 333 333 333 331 329 327 326 325 324 324 325 326 326 325 325 324 324 323 322 320 320 319 318 318 318 317 317 316 316 315 315 314 313 312 312 312 311 310 308 306 305 304 303 303 302 302 301 301 301 300 300 300 300 301 302 303 305 308 310 312 314 315 316 317 317 318 318 319 320 321 322
335 335 334 333 332 332 331 331 330 330 330 329 329 329 329 330 330 329 329 328 326 324 323 322 322 323 324 324 324 324 323 322 321 320 319 319 318 318 317 316 316 315 314 313 313 314 313 312 312 312 311 310 308 306 304 303 303 303 302 302 302 302 301 301 300 299 299 299 299 300 302 305 309 311 312 313 314 315 316 316 315 315 317 319 321
333 333 332 332 331 330 330 329 328 328 327 327 326 325 325 325 326 326 326 325 324 323 322 321 321 321 321 321 321 322 323 322 321 320 319 319 318 318 317 316 315 315 313 313 313 313 313 312 312 311 311 309 307 305 303 303 303 303 303 303 302 302 302 301 301 300 299 299 298 299 300 303 307 310 311 311 312 312 314 315 314 313 314 317 319
332 331 330 329 328 328 328 329 328 328 326 325 324 323 323 322 323 323 324 323 322 322 321 321 320 320 319 318 317 318 319 321 321 320 320 319 319 317 316 315 315 314 313 313 312 313 313 312 312 311 310 308 305 304 304 304 304 303 302 302 302 302 301 301 300 300 299 298 298 297 298 301 306 310 310 310 310 310 312 314 314 312 312 314 316
328 328 327 327 326 325 325 327 327 327 326 325 324 323 322 321 321 322 322 322 322 322 321 319 318 317 316 315 315 314 316 318 319 318 318 317 316 315 314 314 314 314 314 313 312 312 312 312 311 310 309 306 304 304 304 304 303 302 302 301 301 301 301 300 300 299 299 297 296 297 299 303 307 309 308 308 309 308 310 312 313 312 311 312 314
326 326 325 325 324 323 322 323 323 323 323 323 322 320 319 318 318 318 317 318 319 320 319 317 316 315 314 313 313 313 314 315 315 315 314 313 313 312 311 311 311 312 313 313 313 313 312 312 311 310 308 306 304 304 304 303 302 301 301 301 300 300 300 299 299 299 299 297 296 299 302 305 306 306 306 306 307 308 309 311 312 311 309 308 310
325 324 323 322 322 321 320 320 320 319 319 319 318 317 316 316 315 314 314 314 315 316 315 314 314 314 313 313 312 312 312 313 312 312 311 311 311 311 310 310 310 310 310 311 312 312 312 312 311 310 307 305 305 304 303 302 301 301 300 300 300 300 300 299 299 299 298 297 298 301 304 304 304 304 304 305 305 306 306 307 308 308 307 307 307
323 323 321 320 319 318 318 319 319 318 317 316 316 315 314 315 314 314 313 313 313 313 313 312 312 312 312 312 311 311 311 311 310 310 310 310 310 309 309 309 309 309 309 309 309 310 311 311 311 309 307 305 304 303 302 301 301 301 300 300 300 300 299 299 299 299 298 297 299 302 303 302 302 302 302 302 303 303 304 305 305 305 305 306 306
320 319 318 316 316 316 316 317 317 316 315 315 314 314 314 313 313 312 313 312 311 311 311 311 311 311 311 311 311 310 310 310 309 309 309 309 309 308 308 308 308 308 308 308 308 309 310 310 309 307 306 305 304 302 301 301 300 300 300 300 300 300 299 299 299 299 298 298 298 300 301 301 301 300 300 300 301 301 302 303 303 304 304 304 304
316 315 315 314 314 314 315 315 314 314 314 313 313 313 312 312 311 311 311 311 311 310 310 310 310 310 310 310 310 309 309 309 308 308 308 308 308 308 308 308 308 307 307 307 307 308 308 309 308 306 305 304 303 301 301 300 300 300 300 299 299 299 299 299 299 299 298 298 298 298 299 299 299 299 299 298 298 299 300 301 302 302 303 303 303
313 312 313 313 313 313 313 313 313 313 313 313 312 311 311 311 310 311 311 311 310 310 309 309 309 309 309 309 309 309 308 308 308 308 307 307 308 307 307 307 306 306 306 306 306 306 307 307 307 306 305 303 302 301 301 301 300 300 299 299 299 299 299 298 298 298 298 298 298 298 298 297 297 297 297 297 297 298 299 300 300 301 301 302 302
Wind_Speed
15 19 20 18 16 18 23 25 25 24 24 24 25 26 24 24 23 23 22 22 21 19 18 18 20 21 19 18 17 18 19 19 18 18 20 23 26 26 25 24 23 22 22 20 19 18 18 20 21 20 17 15 16 16 16 16 15 15 15 14 13 13 12 13 12 12 16 16 17 18 16 16 18 19 21 24 25 25 26 28 28 27 28 27 27
25 28 28 27 26 27 28 27 26 26 26 26 27 27 26 25 25 24 23 23 22 21 19 18 19 21 21 20 19 19 19 18 19 19 18 20 24 26 25 24 23 22 22 21 20 18 18 19 19 19 19 19 19 18 17 17 16 16 15 11 9 9 8 9 10 10 11 13 14 15 15 15 18 19 21 23 25 24 25 28 29 29 30 30 30
30 27 28 28 28 29 28 28 29 29 29 27 25 26 26 26 26 24 22 21 21 22 20 17 18 21 21 20 19 18 17 14 13 14 15 18 22 25 26 24 22 22 22 22 21 20 19 20 19 19 19 19 20 20 19 19 19 19 17 13 11 11 8 7 7 5 8 11 11 12 13 14 17 18 20 22 24 25 26 27 29 31 31 31 31
28 26 28 29 28 28 28 29 30 30 29 26 23 22 23 23 25 25 23 21 21 22 21 18 18 20 21 19 18 18 18 15 12 10 12 14 17 20 22 24 24 24 23 22 22 22 22 23 22 21 20 20 21 21 20 21 21 20 19 18 18 18 15 12 10 8 8 9 11 12 13 14 15 15 16 19 21 23 26 27 30 32 33 33 33
30 31 31 29 28 28 28 29 29 29 28 26 22 21 21 22 23 23 24 24 23 20 19 18 18 19 19 18 18 19 19 18 16 13 12 13 14 14 15 18 22 25 25 24 22 21 21 21 21 20 21 21 21 21 22 22 22 21 21 21 20 19 18 16 15 14 14 14 15 14 11 12 15 15 14 16 18 20 24 27 30 32 33 34 34
31 31 31 30 29 28 28 28 28 28 28 26 23 22 23 23 23 24 25 24 21 18 17 17 18 17 17 16 16 17 18 18 18 16 14 13 14 13 13 14 16 19 22 23 22 20 19 18 19 19 19 20 20 21 21 22 22 22 23 22 21 19 17 16 15 14 15 15 14 11 9 12 17 17 15 15 17 19 23 27 30 32 33 35 35
31 31 31 31 30 29 28 27 26 27 28 27 25 23 23 24 25 25 22 18 16 15 16 17 17 16 16 15 15 15 16 18 18 17 14 14 14 15 14 14 14 14 16 18 19 18 17 17 18 19 19 20 21 21 21 21 22 22 23 23 21 19 17 16 15 13 12 12 12 12 12 14 17 18 16 15 16 19 24 26 28 31 32 34 35
30 30 31 31 30 29 29 28 26 25 26 26 24 21 20 22 25 24 18 15 16 17 17 17 17 16 15 14 14 15 15 16 17 17 16 15 15 16 15 15 16 16 16 16 16 16 16 17 18 19 20 20 21 21 20 20 20 21 21 21 20 19 17 16 13 8 8 11 15 17 17 17 18 19 20 18 18 21 26 26 27 30 31 31 33
28 25 25 26 26 25 25 25 23 22 22 22 22 21 19 19 21 20 16 16 19 21 19 16 15 14 14 14 13 13 14 15 15 16 15 15 15 15 16 16 17 17 17 17 17 17 18 19 20 21 21 21 21 21 21 19 18 18 18 18 17 16 15 14 8 5 9 16 19 18 16 17 21 23 23 23 23 25 26 24 25 29 30 29 32
22 19 19 20 20 20 20 21 20 18 18 18 20 21 20 18 17 15 13 15 18 19 18 14 12 12 12 11 10 10 11 12 12 12 13 13 13 13 14 15 16 16 16 17 17 17 18 19 20 20 20 21 20 20 19 17 16 16 16 15 15 13 13 12 6 5 11 17 18 16 15 18 24 25 25 26 26 26 27 25 25 28 26 25 28
17 16 16 17 16 17 18 19 18 15 15 18 20 20 19 18 16 13 11 13 14 15 14 11 10 11 10 10 9 9 9 10 10 11 11 11 12 12 14 15 15 15 15 16 16 16 16 16 17 17 18 19 19 17 16 16 16 15 15 15 13 12 13 12 10 10 15 18 18 18 17 20 26 26 25 26 26 25 26 26 26 25 20 17 19
16 16 16 15 15 16 17 18 18 16 16 18 18 18 17 16 14 12 12 12 11 11 10 9 10 10 10 9 7 7 8 9 10 11 11 11 12 13 14 15 15 15 15 16 16 16 16 15 15 14 14 15 16 16 15 16 16 15 15 15 13 13 16 15 13 15 18 19 19 19 19 23 27 26 24 24 24 23 25 26 26 23 19 17 17
15 15 16 16 16 17 18 19 19 17 16 14 13 14 15 14 14 13 12 11 10 9 9 9 9 10 9 8 7 6 8 9 10 10 11 10 10 12 13 12 12 13 14 15 16 16 16 15 14 13 12 11 12 14 14 15 16 15 15 15 13 14 17 16 13 16 19 19 19 20 22 24 26 25 23 21 21 21 22 25 25 22 20 19 20
15 17 17 18 19 19 18 18 16 14 13 13 13 13 14 14 13 13 12 11 9 8 8 8 8 8 8 8 7 7 9 10 10 11 11 10 9 10 11 10 10 12 14 15 15 16 15 15 15 13 12 11 11 13 14 15 14 13 13 13 12 12 12 11 12 15 16 15 17 19 20 22 24 24 22 18 18 19 21 23 24 22 21 20 21
17 17 18 17 18 18 17 15 13 12 12 12 13 13 13 13 12 11 10 9 8 7 8 8 7 7 7 7 6 7 9 9 8 9 10 9 8 9 9 10 11 12 13 13 14 14 14 14 13 13 12 12 11 12 12 11 11 11 11 11 9 7 4 5 10 14 13 13 15 17 18 19 20 20 17 14 16 17 18 22 23 22 22 22 22
16 17 16 15 15 16 15 13 12 11 11 11 12 13 12 12 11 10 9 8 7 7 8 9 8 8 8 8 7 7 7 7 6 8 9 8 8 8 8 9 10 11 12 12 13 13 13 12 12 12 11 10 10 9 9 9 9 10 10 9 8 7 4 3 8 12 14 14 14 16 18 18 18 17 16 16 19 20 20 22 22 22 22 21 20
17 16 13 12 12 13 13 12 12 12 12 12 14 14 12 11 10 9 9 8 7 6 7 7 7 7 7 6 6 6 6 6 7 7 7 7 7 7 8 8 9 10 10 11 11 11 11 11 11 11 10 9 9 9 8 8 9 9 9 9 9 10 10 8 9 11 14 16 18 19 20 20 19 19 18 18 19 20 20 20 21 20 18 16 14
16 15 13 13 13 12 12 12 12 12 13 13 14 13 11 10 9 8 7 7 6 5 5 5 5 5 5 5 6 6 6 6 6 6 5 5 6 7 7 8 9 9 8 7 7 8 8 9 9 9 9 9 9 9 9 9 10 10 10 10 12 13 13 12 10 10 11 14 15 15 15 14 13 12 12 12 12 13 14 16 18 18 16 14 12
14 14 13 13 12 12 11 11 11 11 11 11 10 10 9 8 7 6 5 5 5 5 4 4 5 5 6 6 6 5 4 3 3 3 2 4 6 6 7 8 7 7 6 5 5 5 5 5 5 6 6 7 8 9 9 9 9 9 10 12 14 15 14 11 8 5 5 5 5 5 5 4 4 4 4 4 5 6 6 8 12 13 11 10 8
13 13 13 12 11 12 12 10 9 9 8 8 8 7 6 6 6 5 5 5 6 5 5 5 6 6 6 6 4 4 4 3 2 1 2 4 6 7 7 7 5 5 5 5 5 5 5 4 4 5 5 5 6 7 8 8 9 11 13 13 14 15 12 7 3 2 1 1 1 1 0 1 2 3 5 6 6 5 5 5 5 6 8 10 9
12 13 12 11 11 12 12 11 10 9 8 8 7 7 5 5 5 4 4 5 5 4 4 4 4 4 5 5 5 4 4 3 2 2 3 5 6 5 4 4 5 5 5 5 5 5 6 6 7 7 7 7 7 8 9 11 13 15 15 13 12 11 8 3 3 2 1 1 1 1 1 3 5 7 9 9 8 7 6 6 6 6 8 10 10
13 13 12 12 13 13 12 10 9 9 8 8 7 7 6 5 4 4 4 5 5 4 3 3 4 5 7 7 7 5 4 4 3 2 3 4 3 2 1 2 3 4 4 5 5 6 7 8 8 8 8 9 10 12 13 15 15 14 12 10 8 7 5 4 2 2 1 1 2 3 5 8 9 10 10 11 9 6 4 4 4 6 7 7 8
14 13 13 14 14 13 11 9 9 9 9 8 9 8 8 7 6 6 5 4 4 4 4 4 6 7 8 8 8 6 6 5 3 1 2 3 3 3 3 3 3 4 4 5 6 7 7 8 8 8 9 11 13 14 15 16 15 12 8 5 5 5 5 3 2 2 2 2 3 6 7 7 6 6 7 8 7 4 3 3 3 4 5 6 7
14 14 14 15 14 12 12 11 10 11 10 9 10 10 9 8 8 7 6 5 5 5 5 6 7 9 10 9 9 8 7 6 4 2 1 1 2 3 2 3 3 5 5 6 8 9 10 11 11 11 12 14 15 16 16 14 12 8 5 3 4 4 3 2 2 3 3 3 4 5 5 3 2 2 3 5 4 3 3 3 3 4 5 6 7
15 14 13 14 14 13 13 13 12 12 11 11 11 11 10 9 9 9 8 7 7 7 7 6 7 9 11 11 10 10 9 7 6 4 4 3 1 0 2 3 5 6 7 8 11 12 13 14 15 15 16 16 16 16 14 11 8 6 4 3 5 5 4 3 4 4 4 5 5 6 5 4 4 4 4 5 4 4 5 5 5 5 6 7 8
15 16 15 14 15 15 14 14 14 13 12 12 11 11 10 9 9 8 8 7 7 7 6 6 7 8 10 12 12 11 10 9 7 6 5 4 4 4 4 5 6 7 9 11 13 14 14 14 14 13 13 13 13 12 11 8 7 7 6 5 7 7 6 6 6 6 7 7 8 9 8 7 8 8 8 8 8 7 7 7 8 7 7 8 9
18 18 17 16 16 16 16 15 15 15 14 13 12 11 10 9 8 7 6 6 6 6 5 5 5 5 7 10 11 11 10 10 8 7 6 6 6 6 6 7 7 8 10 12 13 14 13 11 10 10 10 9 9 9 8 7 8 9 9 10 10 10 10 9 9 9 10 10 11 11 10 10 11 11 11 11 11 10 10 10 10 9 8 8 9
18 17 16 16 16 17 17 17 17 17 15 14 13 12 11 10 9 7 6 5 5 6 6 6 6 6 8 9 9 9 9 9 7 6 5 5 6 6 6 6 7 9 11 12 13 13 11 10 11 11 11 12 11 10 9 6 4 4 6 8 10 11 12 12 13 13 13 13 13 12 11 11 11 11 11 11 12 12 13 12 11 10 9 8 9
14 14 14 14 14 14 16 16 16 16 15 15 15 14 12 11 9 7 6 5 5 4 4 6 6 6 8 9 8 7 6 5 4 3 4 4 4 5 6 6 8 10 11 11 12 12 12 14 16 16 14 14 14 15 15 13 11 8 6 3 2 4 7 10 12 12 12 12 12 12 12 11 11 10 9 10 11 11 11 11 11 10 10 10 10
13 13 12 12 13 14 15 15 15 16 17 17 17 15 13 11 9 8 8 7 6 5 4 6 7 6 6 8 7 6 4 2 1 2 3 4 4 5 5 6 8 10 10 10 10 12 14 16 17 16 15 14 14 15 15 15 13 12 10 8 5 3 2 4 6 7 9 10 12 13 13 13 11 10 10 10 10 11 11 10 11 12 11 12 12
18 18 16 16 17 17 17 16 16 16 15 14 14 14 13 12 10 10 10 9 8 8 8 8 8 6 6 6 6 4 3 2 2 2 3 3 4 4 5 6 8 10 9 8 9 11 14 15 16 15 14 13 13 13 13 13 12 11 8 7 5 3 3 3 5 7 9 12 12 13 13 12 11 11 12 12 12 12 12 10 11 14 14 14 14
20 20 19 18 18 18 18 17 15 15 13 12 12 12 13 13 13 12 11 11 10 10 9 9 9 8 7 7 6 6 5 5 4 4 3 3 3 3 4 5 7 8 8 8 9 11 13 14 15 14 13 12 12 11 11 11 11 9 7 7 6 5 3 4 6 9 11 13 15 15 14 13 13 13 14 14 14 13 12 11 11 15 17 17 17
20 20 19 19 18 18 18 17 16 16 14 12 11 9 10 11 13 13 13 11 10 10 10 10 9 8 8 8 9 9 8 7 7 7 6 5 5 5 5 6 8 9 10 11 12 13 13 13 14 14 14 13 12 11 10 10 10 9 8 7 7 7 6 5 6 7 8 9 11 13 13 14 14 14 15 15 15 14 14 14 14 14 16 18 19
19 18 18 17 17 16 16 16 16 16 14 13 11 10 9 9 11 13 14 14 13 12 12 11 10 9 9 9 9 9 10 9 9 9 8 8 8 8 8 9 10 11 11 12 13 13 13 14 14 14 14 14 13 12 12 12 11 10 9 8 8 8 7 7 7 7 7 8 8 8 10 10 11 11 13 15 16 16 17 18 18 17 16 18 20
19 18 16 16 16 15 14 15 14 14 14 12 11 12 13 12 12 14 15 16 16 15 13 12 11 10 8 8 8 9 10 10 10 11 11 11 10 10 12 13 14 14 14 14 14 14 14 15 15 15 15 15 14 14 14 14 13 13 13 12 11 10 9 8 8 8 9 8 9 9 10 10 11 11 12 13 15 16 17 19 20 19 19 19 20
18 17 15 15 15 15 15 15 15 14 14 14 13 14 15 15 16 17 18 18 17 16 14 13 12 10 9 8 9 11 11 12 13 14 15 14 13 13 15 17 16 16 16 16 15 14 15 15 14 14 13 13 13 13 13 13 14 14 14 14 13 12 12 11 11 11 11 11 11 12 12 13 14 14 14 14 15 16 16 18 18 18 19 18 20
17 17 16 16 16 17 17 17 16 16 16 16 16 16 16 17 18 19 19 18 18 17 16 15 14 13 13 13 14 14 14 14 15 15 15 15 14 15 17 17 16 16 17 16 15 15 15 14 14 13 12 12 13 12 13 13 14 14 14 14 14 14 15 15 14 14 14 14 14 15 15 15 16 16 15 16 17 17 18 18 18 17 16 16 18
18 17 17 16 17 18 19 19 18 18 18 18 18 19 20 20 20 20 20 20 19 18 18 17 17 17 17 16 15 14 13 14 14 15 15 15 15 15 15 14 14 15 15 15 15 15 15 14 13 13 13 13 13 13 14 14 15 15 15 15 15 16 16 16 17 17 16 16 17 17 18 17 16 16 16 16 17 18 19 19 18 17 16 15 14
19 19 18 17 18 19 20 20 20 19 20 20 20 21 21 22 21 21 20 20 19 18 18 18 18 17 15 13 11 11 12 14 15 16 16 16 16 16 14 13 13 13 12 12 13 15 14 14 14 15 14 14 15 16 16 16 15 15 16 16 17 18 19 20 21 20 19 19 19 20 20 19 17 15 15 16 18 19 19 20 19 18 17 17 16
21 20 19 19 19 20 20 20 21 21 21 21 21 21 21 20 20 20 20 20 20 19 19 19 17 15 13 12 11 11 12 14 14 14 15 16 16 16 14 13 12 12 11 10 11 12 12 13 14 15 16 17 17 17 17 16 16 17 18 19 20 21 22 23 23 23 22 22 22 22 22 22 19 16 15 16 17 18 19 20 20 18 17 17 16
20 20 19 19 19 19 20 20 20 21 21 22 22 21 20 18 18 18 18 18 18 18 18 18 17 14 12 11 11 11 11 12 12 12 13 14 14 14 14 12 11 11 12 11 11 10 10 10 11 14 15 16 16 17 17 17 18 18 19 21 21 22 23 24 24 25 24 24 24 24 24 23 21 18 17 16 17 18 19 20 20 20 19 18 17
19 20 19 19 19 19 19 20 20 20 21 21 20 20 18 17 17 17 16 15 16 16 17 18 16 14 12 11 10 9 9 9 9 10 11 11 12 12 12 11 11 12 12 11 11 10 8 8 10 12 13 14 15 16 17 17 18 19 20 21 22 24 25 25 26 26 26 26 26 25 25 24 22 19 18 18 18 18 19 20 21 21 20 20 19
20 20 20 19 18 18 18 17 17 18 18 18 17 16 15 15 15 15 15 14 14 14 14 15 14 12 12 12 11 10 8 7 7 8 8 9 9 10 10 9 9 11 11 10 9 8 7 7 8 10 11 12 13 15 16 16 18 19 20 21 23 24 25 26 27 27 27 26 26 26 25 24 22 21 19 19 20 20 19 19 20 21 21 20 19
19 19 18 18 17 16 15 15 15 17 17 16 16 15 14 14 13 12 12 11 10 10 11 11 10 10 10 10 11 11 9 6 5 5 6 7 8 9 8 7 7 9 11 10 7 5 4 5 5 6 8 10 11 12 13 14 16 17 19 20 22 24 25 26 27 27 26 26 25 25 25 23 21 20 20 19 20 21 21 20 19 20 21 20 19
18 17 17 17 16 15 15 15 16 16 15 15 16 15 14 13 12 11 10 10 9 9 10 11 11 11 11 11 11 12 11 9 8 9 9 10 9 10 9 8 8 8 9 8 5 4 4 2 2 4 6 8 8 9 11 13 14 16 18 20 21 23 25 26 26 26 25 24 23 23 23 22 19 19 19 20 21 22 22 20 18 18 19 20 19
17 16 16 16 16 16 17 18 18 18 17 17 18 18 17 17 17 16 16 15 13 12 13 13 13 12 11 11 12 12 13 12 12 12 12 11 11 11 10 9 9 9 7 6 4 2 2 1 1 3 5 5 6 7 9 11 13 15 17 19 21 23 24 25 26 26 25 23 21 20 20 19 17 17 18 19 20 22 22 19 17 17 18 19 19
16 15 15 15 16 17 17 16 17 18 20 20 20 20 20 20 20 20 20 19 18 16 15 14 12 11 10 10 11 12 13 12 11 10 10 9 9 9 8 8 9 9 8 6 4 3 2 2 3 2 3 3 4 6 8 10 13 15 17 19 21 22 23 25 26 25 24 22 19 17 16 16 16 17 18 18 19 20 20 18 17 17 18 19 19
16 15 16 16 18 18 17 15 16 18 20 20 19 19 19 19 19 19 18 17 17 17 16 15 14 12 10 10 9 10 10 10 9 9 9 8 7 8 8 8 8 9 10 9 8 5 2 2 4 3 1 2 3 5 7 10 13 15 17 19 21 22 23 24 25 25 24 21 17 15 14 14 15 17 17 17 18 18 18 18 18 18 19 19 19
19 19 19 20 21 21 20 19 19 20 19 18 17 17 16 16 16 16 16 15 16 16 16 16 15 14 12 10 9 8 8 9 10 10 8 7 7 8 9 8 7 8 9 9 8 6 2 2 4 3 2 1 2 5 7 10 13 15 17 19 20 21 22 22 23 23 23 21 18 15 14 14 15 16 17 18 18 18 18 18 19 19 19 19 19
21 21 21 21 22 22 22 21 20 19 18 17 16 16 16 16 15 15 14 14 14 15 15 14 14 14 13 12 11 9 9 9 9 9 8 6 5 7 7 7 6 6 7 8 7 5 1 4 5 4 2 0 2 5 8 11 13 15 16 17 18 19 20 20 21 21 21 22 20 18 16 16 17 18 19 19 19 18 18 18 19 19 19 20 20
20 20 20 20 20 20 20 20 20 18 17 17 17 17 17 16 15 13 12 12 11 12 12 12 12 12 12 12 11 10 9 9 8 9 9 7 6 6 7 7 8 8 8 6 6 5 1 4 6 5 3 1 3 6 9 11 14 15 16 16 17 18 19 20 20 20 20 21 21 20 19 18 18 19 20 20 19 18 18 18 18 19 19 19 20
Wind_Direction
175 189 197 198 202 214 220 219 219 223 224 226 229 229 228 226 224 225 226 227 229 230 230 232 234 232 227 227 229 227 229 230 233 244 252 250 244 239 242 246 247 250 251 251 252 256 262 263 263 263 263 265 269 272 276 281 288 293 297 301 303 312 302 269 246 256 270 265 256 255 252 245 242 240 242 245 247 250 253 254 256 256 258 261 260
195 199 200 199 202 213 220 219 217 219 220 223 226 227 228 228 227 229 230 229 230 231 231 232 233 228 223 224 226 227 235 242 244 245 248 249 243 238 240 244 247 250 250 248 248 251 257 260 261 262 261 263 265 268 273 279 286 292 299 307 302 298 301 285 267 257 273 278 262 248 244 242 244 244 244 245 247 252 254 254 254 256 258 260 261
199 196 199 204 207 211 217 219 218 218 216 217 222 225 228 230 228 226 226 226 228 230 228 227 229 226 224 226 226 224 228 233 236 236 238 242 242 240 241 243 247 250 248 246 246 249 252 256 259 260 259 261 263 266 271 276 279 283 286 284 279 280 282 282 280 282 300 303 284 258 250 249 248 248 249 250 253 257 259 257 255 256 259 260 260
198 198 205 210 211 211 215 218 220 220 218 215 218 223 226 227 224 221 222 221 221 224 226 226 228 227 226 227 228 226 224 222 223 232 238 241 244 244 244 245 248 250 248 247 247 249 252 254 257 259 257 258 261 264 266 270 273 275 275 274 274 277 278 273 266 261 268 278 278 275 276 274 265 256 255 259 261 261 261 258 255 256 257 258 259
201 205 210 213 214 213 213 216 220 223 221 217 217 220 221 222 222 221 220 218 215 217 220 220 220 221 223 226 229 229 228 226 227 236 246 246 246 246 245 246 248 249 249 247 246 248 251 252 253 254 254 255 258 261 262 264 267 269 269 270 272 275 278 275 267 259 254 254 259 264 276 287 283 274 269 270 269 264 260 257 255 255 256 256 258
202 205 210 214 216 213 211 214 220 223 222 218 218 221 222 223 225 224 220 215 210 210 211 212 216 219 223 228 233 235 237 237 234 235 245 249 248 249 250 249 248 247 246 244 244 246 246 247 249 248 249 252 254 257 260 261 263 266 268 271 273 275 275 274 271 267 262 266 273 278 288 291 282 277 275 273 269 264 261 260 257 256 255 256 258
205 206 210 213 213 210 209 213 219 222 220 218 220 225 229 231 231 227 219 208 205 211 213 213 215 217 220 228 237 243 246 244 238 235 241 250 254 255 255 252 249 246 244 243 246 250 251 252 254 253 252 255 257 259 262 265 268 270 271 273 273 271 268 270 273 272 272 285 291 281 275 272 266 266 270 268 265 261 258 258 258 258 257 256 258
204 205 206 208 208 207 209 213 216 217 216 218 222 229 234 236 233 228 218 213 218 221 219 216 215 219 227 235 241 246 246 242 238 238 242 247 251 252 253 254 255 255 254 255 257 262 264 264 264 263 263 263 265 267 268 271 274 274 275 275 271 269 269 266 264 267 282 286 275 264 264 265 263 265 268 266 262 260 257 255 257 261 262 262 263
198 199 202 203 204 204 206 209 212 213 214 216 220 225 231 234 233 228 220 219 222 220 219 222 224 228 235 239 240 240 240 240 238 240 243 243 244 248 252 255 258 260 262 265 269 270 270 269 268 268 269 269 270 272 271 272 274 275 277 276 272 271 270 264 257 270 278 270 264 262 264 266 265 266 267 266 264 265 265 260 257 262 268 270 271
189 191 196 200 202 201 201 203 206 208 211 214 217 223 230 237 238 232 220 216 217 217 220 225 228 232 235 235 234 233 236 241 241 238 240 242 246 251 255 256 257 260 264 268 272 274 272 271 270 268 269 270 270 270 271 274 276 277 277 274 271 269 263 255 235 225 252 258 261 262 258 259 263 263 264 268 270 270 270 266 263 267 273 276 277
181 181 186 192 197 197 195 194 197 201 206 211 214 220 228 237 243 243 231 219 213 212 218 223 224 229 231 228 225 226 233 240 242 243 244 249 255 259 260 261 261 263 270 273 276 278 278 277 275 273 271 270 267 267 271 273 272 274 274 269 264 261 255 247 233 231 244 250 253 254 252 257 264 264 264 269 270 268 269 268 268 270 272 273 279
174 173 175 180 184 187 189 190 193 199 203 206 211 217 224 231 237 238 228 217 211 211 217 224 228 233 237 241 246 249 252 252 250 251 253 257 262 263 261 263 266 269 272 275 278 280 281 281 279 278 279 277 273 271 268 264 263 267 269 263 253 247 246 244 244 252 256 252 247 248 253 259 263 266 267 267 266 265 267 269 269 269 269 267 270
169 165 164 166 170 176 182 186 190 194 193 192 199 207 213 218 222 222 217 214 218 223 228 233 238 239 239 242 249 258 268 274 273 271 270 268 265 261 256 256 261 267 270 273 278 280 280 281 280 279 285 288 282 274 268 267 270 270 266 262 256 255 256 257 258 262 262 258 254 255 260 263 264 267 269 268 266 265 266 269 270 269 268 266 268
164 159 158 161 165 170 175 179 185 187 183 181 188 195 201 209 215 214 215 219 224 230 239 243 240 238 237 235 235 244 257 268 276 280 279 273 265 259 257 254 256 262 268 272 277 280 280 280 278 279 284 286 282 277 274 275 277 275 272 274 275 273 268 260 257 258 258 260 263 265 269 270 269 272 276 274 270 267 266 270 273 273 273 273 276
160 156 156 160 165 170 172 174 178 181 181 183 191 197 202 207 212 214 218 225 228 232 239 243 240 241 248 249 247 253 260 264 272 279 276 271 268 267 266 264 262 265 271 277 281 281 279 276 274 277 283 283 280 277 277 278 282 286 288 289 287 284 263 235 254 267 272 272 273 274 276 274 272 275 279 274 270 272 274 277 278 278 278 280 281
153 153 154 157 163 167 169 169 173 181 187 191 197 202 204 206 210 215 218 217 219 231 241 246 251 253 253 257 262 268 276 278 276 275 276 276 279 279 275 271 269 271 276 280 281 281 279 277 276 281 286 285 281 279 279 283 285 287 288 287 285 286 285 266 273 280 279 271 265 264 265 267 269 271 272 273 274 277 279 280 279 278 278 281 282
148 152 150 150 155 158 161 165 168 176 185 191 197 203 205 208 212 216 217 213 212 228 244 250 257 261 263 271 280 284 287 285 279 277 281 285 285 285 281 277 278 283 286 287 287 287 287 284 283 284 284 284 285 285 283 286 285 282 280 281 283 287 293 291 279 271 266 261 258 258 262 266 268 270 274 276 276 274 272 272 275 276 276 276 275
150 152 148 150 156 158 163 168 170 176 185 191 197 202 205 211 217 218 221 224 222 222 234 247 257 267 273 273 276 281 281 278 279 280 281 284 285 286 287 288 290 296 300 302 300 298 295 288 283 283 282 279 279 279 279 286 287 280 277 281 287 294 300 299 288 273 262 258 258 260 265 271 276 280 283 281 277 272 265 265 271 274 272 269 274
160 160 157 158 161 163 169 175 177 181 188 194 200 206 211 215 219 221 224 229 231 226 230 250 260 261 266 268 263 264 268 262 262 270 278 285 287 289 292 296 297 296 298 306 309 307 305 297 288 289 287 274 269 272 275 279 280 277 280 288 295 302 308 306 295 277 251 244 254 258 262 277 296 314 325 317 304 293 282 282 282 281 286 300 316
170 170 165 159 159 167 172 176 182 185 188 196 204 210 216 211 206 215 226 223 223 229 233 247 259 255 252 253 240 233 238 224 217 255 295 293 289 290 293 294 293 292 294 304 317 327 332 333 323 315 307 287 274 275 277 280 285 288 291 295 298 306 313 307 278 263 246 275 339 356 9 356 345 346 348 348 345 341 343 343 328 315 324 337 346
167 167 167 165 169 176 175 172 177 182 183 189 199 203 198 191 189 196 208 206 203 209 215 220 232 223 210 210 211 214 219 218 233 296 315 310 306 304 303 299 300 306 303 294 295 306 313 316 315 313 311 303 294 294 296 297 298 295 292 293 297 302 303 271 228 246 295 316 343 27 341 310 310 317 322 325 330 331 330 334 339 340 340 340 341
166 166 169 171 171 173 173 170 170 176 181 182 185 186 178 175 176 169 171 182 182 180 189 192 187 183 184 197 214 219 212 214 233 301 341 344 347 -0 8 345 333 334 328 311 302 301 301 303 305 307 307 306 305 308 311 312 311 305 297 293 290 281 259 230 230 266 269 263 283 293 297 299 303 309 316 320 322 324 331 336 335 340 341 332 325
167 167 167 165 164 165 166 168 168 173 179 175 168 166 165 164 164 160 161 176 186 187 192 189 184 188 196 205 216 218 213 209 201 141 36 30 57 75 68 47 21 358 350 344 338 332 324 317 314 310 307 307 309 311 315 318 320 318 308 289 268 247 230 227 269 307 285 273 295 303 305 309 313 321 333 341 343 349 12 16 3 352 343 319 307
160 161 162 161 163 165 167 170 173 172 171 170 166 165 168 169 167 167 172 181 189 191 191 192 194 198 206 214 216 213 210 204 191 166 131 115 94 72 43 14 356 342 339 339 332 327 324 320 315 309 304 304 305 306 309 314 315 318 321 290 248 227 215 226 281 306 295 284 293 300 301 300 299 310 338 355 3 -0 354 352 335 323 317 301 300
159 160 163 163 162 165 166 167 170 170 168 169 169 169 175 180 177 177 181 180 184 191 194 205 215 212 211 215 214 207 204 199 192 184 176 184 202 312 329 324 324 322 325 326 323 322 321 317 311 305 302 302 302 303 306 307 301 298 303 279 251 237 229 241 266 281 281 277 278 279 274 269 272 281 293 299 297 298 307 312 308 303 298 293 294
170 170 170 170 168 169 173 171 170 173 174 176 177 174 175 178 174 179 193 200 207 219 222 229 239 234 223 219 212 203 198 194 192 194 200 215 233 252 274 289 301 311 317 320 322 325 325 319 313 309 308 308 308 309 311 303 287 281 279 268 260 251 244 245 253 260 265 266 270 275 277 280 282 282 281 281 282 282 284 289 292 290 287 289 290
175 174 172 175 176 177 183 184 182 183 183 184 188 186 181 178 175 177 195 209 215 219 214 210 216 212 202 203 202 199 197 196 198 210 225 240 257 272 281 287 301 315 320 324 333 339 339 336 335 337 340 342 341 335 326 308 289 282 276 269 264 257 250 249 250 252 256 259 267 278 284 289 291 289 284 282 282 281 280 281 280 277 281 287 291
176 178 177 181 186 189 195 197 193 192 192 189 189 189 184 179 170 156 150 157 167 169 157 146 152 160 164 174 185 191 193 198 206 223 247 267 281 291 296 299 310 322 328 334 347 357 3 8 14 18 25 32 35 33 28 18 348 313 283 266 260 255 251 250 251 252 254 257 264 276 285 291 296 297 296 292 290 290 288 282 271 266 271 280 289
179 184 186 186 187 188 189 188 180 174 170 165 163 163 160 156 149 133 121 120 132 150 154 139 133 140 149 156 164 168 172 188 216 249 279 297 306 309 309 312 321 333 339 343 352 4 14 21 25 30 38 45 49 50 49 49 48 45 40 17 298 265 255 252 252 253 254 256 263 273 283 291 296 299 303 305 308 313 306 283 264 260 264 268 279
147 148 156 156 153 153 157 159 153 146 144 143 143 142 140 135 128 118 109 104 102 108 124 126 119 123 138 144 144 142 139 153 267 313 318 320 322 320 321 327 333 339 344 346 353 3 13 21 26 28 34 41 45 46 47 49 52 52 49 46 41 24 313 265 259 255 250 252 263 274 283 289 294 300 305 308 313 323 319 290 262 256 258 262 271
121 119 123 126 128 131 134 137 136 134 134 136 138 142 140 133 127 125 121 116 111 106 106 107 104 103 113 120 119 113 99 67 19 1 345 335 335 333 331 335 340 344 348 353 5 16 22 26 29 30 35 42 44 44 45 47 51 51 47 42 24 338 284 258 268 268 257 255 263 273 281 289 297 303 308 308 309 316 319 301 267 256 258 261 266
119 117 119 120 121 123 125 127 130 133 136 138 141 148 148 140 135 133 130 126 120 111 103 101 100 97 96 96 93 87 76 63 49 38 29 22 15 1 351 355 5 13 15 18 29 37 39 37 36 38 45 49 50 50 48 46 48 48 47 42 26 358 315 282 287 286 277 271 270 273 280 292 301 304 305 306 307 311 315 306 282 267 262 261 264
124 123 123 123 122 123 122 123 124 126 129 133 138 148 155 151 146 142 133 124 118 112 104 97 91 88 87 85 79 71 65 63 61 57 53 50 45 43 43 41 39 38 38 40 44 46 47 47 46 46 49 50 51 53 52 49 50 48 42 35 24 10 355 333 316 310 306 297 288 286 292 302 310 311 309 309 310 311 311 309 302 288 271 262 263
117 117 118 117 116 116 116 117 117 116 116 120 126 130 135 142 150 149 136 119 108 104 101 93 85 81 82 81 73 63 59 62 64 62 61 63 64 67 69 62 51 44 43 47 50 50 51 52 52 51 51 50 49 49 47 44 43 39 32 24 12 1 352 341 333 329 328 324 318 318 321 324 330 330 323 320 319 318 315 311 308 301 285 270 266
107 105 105 104 102 103 106 109 111 111 110 110 113 118 121 123 132 137 129 115 105 99 92 83 76 71 70 72 70 65 66 71 72 69 68 69 73 78 75 65 56 50 49 50 51 53 55 53 51 51 49 47 46 46 44 41 37 34 33 34 33 29 25 15 3 355 350 347 346 347 348 348 349 348 343 338 335 331 326 320 313 306 295 281 271
106 104 102 101 100 100 102 103 105 107 107 106 108 113 118 119 121 121 117 109 104 97 87 79 73 67 64 71 79 82 84 84 79 75 73 71 72 75 71 61 52 48 47 45 45 49 51 47 44 47 45 40 39 39 37 35 33 31 31 33 32 29 26 19 10 2 360 359 356 353 352 351 351 352 351 349 348 347 343 338 330 317 302 287 274
109 109 108 106 104 103 102 101 102 104 104 104 106 110 114 117 118 116 111 105 100 92 84 78 75 73 74 81 90 95 95 90 83 77 72 65 60 61 61 57 52 48 45 41 38 39 40 36 35 40 41 36 32 31 29 28 27 27 28 29 27 25 23 19 14 9 6 5 3 358 355 353 352 352 353 351 350 350 347 347 346 336 319 299 279
107 109 111 110 107 106 104 101 102 104 104 103 104 108 111 114 114 111 106 101 96 90 84 79 76 76 79 87 96 99 94 85 76 69 62 55 49 48 49 51 51 48 43 39 35 33 33 35 36 39 40 37 36 34 31 28 26 25 26 26 26 26 25 21 19 18 15 12 9 5 -0 356 353 354 358 356 353 350 346 346 348 347 340 330 309
101 104 109 110 107 105 104 102 102 104 104 103 104 107 111 113 111 107 103 97 93 90 86 82 79 76 76 80 85 83 78 74 70 67 64 60 54 49 46 47 48 45 40 34 29 30 38 46 48 48 48 46 44 42 38 34 31 30 29 29 28 28 28 25 23 22 19 16 14 11 6 1 356 357 3 3 357 353 350 347 347 346 344 342 338
100 101 102 103 102 102 102 102 102 102 102 102 103 105 108 111 111 107 101 97 95 92 87 83 80 77 74 74 72 69 74 80 80 75 71 66 59 54 51 49 47 46 42 34 28 35 49 56 54 52 51 49 46 44 41 39 37 35 34 33 31 29 27 25 22 20 18 15 13 11 9 5 2 3 6 4 357 354 352 348 345 344 343 340 339
102 100 99 99 99 99 99 99 100 102 103 102 102 102 104 108 111 110 105 101 97 91 86 85 83 78 75 77 73 69 75 83 83 77 71 67 63 59 57 55 51 49 47 40 35 41 54 58 52 49 49 48 46 44 41 39 38 37 34 32 30 27 24 21 17 15 13 11 10 8 7 6 5 4 1 356 351 351 351 349 345 344 343 342 341
104 103 102 101 100 99 98 99 100 102 102 100 98 97 99 103 108 110 109 106 101 95 91 89 86 82 81 82 80 78 79 79 78 78 77 75 72 68 65 60 54 48 41 36 36 46 60 63 52 44 44 46 45 43 41 40 38 36 33 29 26 23 19 16 13 10 6 5 4 3 1 0 1 360 356 352 349 348 348 348 349 349 346 344 343
106 104 102 101 101 102 104 105 105 104 101 98 94 93 93 95 100 103 104 103 101 98 93 89 86 85 80 73 71 77 87 89 86 86 87 88 85 79 73 64 54 42 32 28 41 58 67 62 49 39 39 45 48 46 45 44 40 35 32 28 24 21 17 13 10 6 2 359 358 356 355 355 356 355 355 353 351 348 344 343 346 351 351 348 348
105 101 98 96 96 96 100 107 113 113 109 102 98 96 94 93 95 100 102 100 97 95 93 92 90 86 74 58 52 57 68 82 89 88 91 95 89 77 66 54 41 28 18 20 46 80 74 49 45 45 45 50 53 50 46 43 38 33 30 27 23 20 16 12 8 4 360 355 352 351 350 350 351 353 355 355 352 349 345 339 339 345 351 352 351
103 101 99 95 89 85 88 100 111 116 116 112 107 101 95 92 92 94 96 97 100 102 103 100 93 84 75 64 54 52 59 76 87 87 88 89 80 67 57 43 28 16 5 3 30 82 86 60 72 81 69 63 59 50 43 40 36 33 29 26 22 19 16 11 7 2 358 353 349 347 346 346 348 352 355 356 353 349 345 339 333 336 345 348 346
101 102 99 92 87 85 89 94 98 100 105 109 105 96 90 89 88 86 84 85 91 99 100 95 87 82 80 76 68 63 69 81 87 84 82 78 69 59 50 34 23 18 10 356 1 48 83 185 175 105 82 76 66 50 41 39 36 31 28 24 21 18 14 9 4 0 356 351 347 345 344 345 349 352 354 356 355 352 350 347 340 336 341 347 345
100 99 95 90 88 87 89 91 90 91 97 103 100 93 90 89 88 85 81 79 82 89 92 87 85 89 92 85 75 71 75 81 80 73 66 60 51 43 35 27 26 31 36 35 27 11 329 244 209 147 95 87 70 51 42 38 33 29 26 23 19 15 11 7 3 359 354 350 347 347 346 348 352 355 356 357 357 355 354 354 351 345 345 348 347
103 98 92 88 85 82 84 90 94 97 101 103 100 94 92 89 85 82 78 74 75 81 84 82 81 86 92 87 76 71 72 72 65 55 48 43 36 24 14 14 25 32 36 41 44 34 6 232 204 186 139 94 67 48 40 35 30 25 21 18 15 11 8 5 2 359 355 352 349 349 351 353 355 355 355 355 354 352 351 351 349 348 348 347 347
99 95 90 86 82 81 86 92 96 98 99 99 97 94 90 85 80 78 77 76 77 78 78 76 74 74 77 79 74 68 64 60 53 47 41 34 23 9 358 359 11 19 21 28 37 42 47 209 208 205 200 137 58 46 39 33 29 23 18 13 10 6 3 2 0 359 358 356 352 349 350 353 353 351 349 348 346 346 346 346 346 346 347 346 344
94 91 88 85 84 86 90 93 93 93 92 92 92 90 86 82 79 76 75 78 79 77 73 72 69 66 68 73 74 72 66 59 49 41 36 30 19 10 9 14 24 22 17 19 27 35 76 215 218 216 211 180 40 40 35 29 24 20 15 10 7 4 1 0 360 359 359 358 356 353 351 351 350 347 344 342 341 341 342 344 344 344 345 344 342
91 88 87 86 87 89 90 90 89 89 90 93 94 91 87 84 83 79 76 76 76 69 65 65 67 68 71 73 74 71 64 53 40 30 30 35 41 37 32 29 24 18 11 -0 358 7 -0 214 220 227 239 298 17 30 28 22 17 11 5 4 4 3 2 0 359 359 359 359 358 358 358 357 357 355 352 349 347 343 342 344 344 343 342 342 341